Total_Precipitation_Accumulation
2.65 2.71 2.71 2.66 2.44 2.78 3.22 3.48 3.15 3.41 3.43 3.02 2.70 2.56 2.52 2.45 2.63 2.85 2.69 2.79 2.74 2.74 3.06 3.21 3.06 2.82 2.60 2.24 1.98 1.77 1.54 1.42 1.29 1.05 0.87 0.83 0.78 0.72 0.68 0.66 0.64 0.60 0.57
3.16 3.21 3.07 2.97 2.63 2.62 2.93 3.18 3.18 3.56 3.40 3.20 2.59 2.51 2.44 2.55 2.75 2.77 2.76 3.21 3.15 2.91 2.96 3.23 3.41 3.34 3.11 2.91 2.59 2.29 1.98 1.80 1.69 1.37 1.06 0.95 0.89 0.82 0.79 0.81 0.85 0.77 0.62
3.67 3.54 3.34 2.95 2.75 2.77 2.98 2.93 2.96 3.09 2.98 2.88 2.63 2.68 2.64 2.60 2.54 2.60 2.79 3.04 2.92 2.66 2.68 2.89 3.28 3.55 3.72 3.74 3.50 3.23 2.67 2.16 1.97 1.66 1.32 1.07 0.94 0.87 0.85 0.86 0.93 0.89 0.74
3.46 3.48 3.18 2.77 2.82 2.85 2.89 2.98 2.82 2.90 2.91 2.93 2.87 2.63 2.68 2.69 2.32 2.35 2.50 2.53 2.65 2.37 2.47 2.63 2.85 3.14 3.78 4.36 4.68 4.60 3.88 2.96 2.40 2.07 1.77 1.43 1.17 1.00 0.90 0.89 0.98 0.97 0.80
3.25 3.42 3.14 2.97 2.89 2.87 2.74 2.51 2.91 3.06 3.07 3.05 2.70 2.59 2.37 2.19 2.03 1.86 1.87 1.75 1.96 2.17 2.37 2.43 2.63 2.81 3.49 4.44 5.28 5.56 5.13 4.12 3.29 2.73 2.41 2.05 1.73 1.42 1.16 1.06 1.02 0.95 0.86
2.93 3.15 2.90 2.81 2.91 3.01 2.84 2.82 3.10 3.14 2.85 2.90 2.52 2.40 2.22 1.85 1.75 1.68 1.56 1.57 1.57 1.52 1.89 2.36 2.78 2.48 2.86 3.68 4.48 5.13 5.55 5.21 4.33 3.66 3.14 2.74 2.40 2.05 1.62 1.42 1.31 1.22 1.14
2.58 2.95 2.72 3.00 2.86 2.77 2.61 2.56 2.69 2.73 2.46 2.66 2.91 2.44 1.91 1.63 1.56 1.46 1.47 1.55 1.51 1.60 1.93 2.40 2.70 2.83 2.65 2.60 3.03 3.67 4.73 5.21 4.93 4.32 3.76 3.32 2.95 2.62 2.15 1.85 1.67 1.50 1.43
2.69 2.55 2.73 2.55 2.52 2.61 2.42 2.32 2.53 2.54 2.27 2.58 2.75 2.76 2.16 1.91 1.63 1.19 1.32 1.46 1.58 1.80 1.84 1.98 2.39 2.72 2.66 2.94 2.46 2.38 3.36 4.31 4.98 4.94 4.38 3.76 3.28 2.86 2.46 2.20 1.91 1.60 1.44
2.86 2.74 2.63 2.44 2.38 2.23 2.31 2.34 2.39 2.45 2.38 2.36 2.45 2.71 2.36 1.96 1.64 1.27 1.24 1.47 1.80 2.02 1.99 2.05 2.07 2.30 2.39 2.73 2.68 2.45 2.41 2.90 3.85 4.81 4.91 4.26 3.48 2.86 2.47 2.40 2.28 1.94 1.65
2.98 2.72 2.57 2.35 2.19 2.06 2.27 1.99 2.09 2.39 2.52 2.26 2.28 2.27 2.19 2.28 2.15 1.74 1.41 1.33 1.61 1.82 1.89 1.78 1.81 1.99 2.22 2.53 2.64 2.65 2.40 2.34 2.82 3.82 4.48 4.46 3.94 3.27 2.83 2.78 3.00 2.89 2.36
2.72 2.43 2.35 2.28 2.12 1.99 2.00 1.98 2.25 2.28 2.28 2.23 2.31 2.28 2.37 2.51 2.33 2.14 1.80 1.70 1.84 1.81 1.72 1.68 1.72 1.85 2.09 2.40 2.71 2.72 2.92 2.61 2.44 2.67 3.17 3.58 3.78 3.57 3.25 3.33 3.86 4.13 3.76
2.36 2.20 2.12 2.20 2.05 1.94 1.95 1.95 2.08 2.16 2.30 2.40 2.41 2.39 2.44 2.42 2.42 2.61 2.28 2.06 2.03 1.77 1.70 1.73 1.81 1.94 2.08 2.31 2.34 2.54 2.69 2.76 2.62 2.53 2.60 2.77 3.05 3.31 3.47 3.70 4.15 4.58 4.78
1.93 1.91 1.99 2.11 1.95 1.89 1.96 2.12 2.13 2.10 2.25 2.36 2.30 2.38 2.46 2.41 2.52 2.70 2.62 2.29 2.09 1.85 1.89 1.88 1.86 2.07 2.10 2.39 2.62 2.56 2.30 2.38 2.34 2.28 2.25 2.27 2.33 2.63 2.94 3.20 3.69 4.22 4.67
1.69 1.75 1.96 2.03 1.96 1.89 1.89 2.25 2.23 2.23 2.33 2.31 2.20 2.50 2.56 2.36 2.56 2.77 2.86 2.86 2.56 2.38 2.42 2.40 2.14 2.11 2.21 2.35 2.59 2.45 2.20 2.20 1.91 1.82 1.80 1.84 1.88 2.00 2.19 2.44 2.76 3.10 3.39
1.77 1.84 1.91 2.10 2.19 2.26 2.30 2.44 2.36 2.35 2.54 2.51 2.46 2.61 2.62 2.49 2.51 2.63 2.87 3.07 3.09 2.89 2.79 2.71 2.41 2.27 2.22 2.20 2.34 2.22 2.28 2.19 1.75 1.49 1.43 1.44 1.44 1.46 1.53 1.69 1.92 2.19 2.37
1.89 1.93 1.94 2.02 2.15 2.27 2.33 2.49 2.48 2.52 2.69 2.71 2.76 2.84 2.72 2.48 2.58 2.63 2.78 3.06 3.31 3.34 3.08 2.71 2.49 2.35 2.34 2.08 2.12 1.93 1.96 1.88 1.55 1.39 1.29 1.24 1.22 1.22 1.23 1.29 1.42 1.66 1.86
1.87 1.92 1.93 1.90 1.89 2.04 2.25 2.46 2.43 2.59 2.72 2.76 2.74 2.66 2.55 2.60 2.74 2.68 2.82 2.98 3.18 3.40 3.15 2.82 2.68 2.62 2.60 2.40 2.24 1.93 1.69 1.56 1.44 1.49 1.34 1.21 1.16 1.16 1.21 1.27 1.33 1.44 1.62
1.92 1.89 1.87 1.86 1.82 1.92 2.18 2.36 2.47 2.72 2.86 2.77 2.69 2.63 2.51 2.63 2.74 2.72 2.79 2.79 2.85 3.13 3.05 2.85 2.79 2.82 2.69 2.46 2.33 2.13 1.78 1.58 1.59 1.68 1.52 1.35 1.25 1.23 1.21 1.22 1.30 1.39 1.50
1.85 1.80 1.83 1.91 2.03 2.14 2.32 2.45 2.56 2.74 2.71 2.61 2.63 2.55 2.44 2.51 2.47 2.54 2.57 2.57 2.57 2.66 2.83 2.75 2.66 2.74 2.64 2.43 2.34 2.17 2.04 2.13 1.94 1.78 1.62 1.47 1.36 1.30 1.29 1.23 1.26 1.36 1.46
1.60 1.66 1.87 2.11 2.26 2.38 2.49 2.52 2.53 2.50 2.50 2.42 2.32 2.25 2.27 2.38 2.43 2.42 2.34 2.34 2.41 2.55 2.64 2.66 2.63 2.71 2.72 2.67 2.52 2.39 2.41 2.36 2.19 1.76 1.64 1.45 1.35 1.24 1.18 1.12 1.15 1.31 1.46
1.58 1.80 1.97 2.08 2.12 2.18 2.25 2.37 2.37 2.31 2.30 2.22 2.12 1.94 1.97 2.26 2.37 2.32 2.14 2.25 2.33 2.42 2.51 2.63 2.67 2.75 2.82 2.95 2.72 2.45 2.38 2.44 2.31 2.06 1.89 1.64 1.49 1.36 1.32 1.28 1.24 1.26 1.30
1.78 1.96 1.97 1.94 1.90 1.65 1.74 1.87 1.92 1.98 2.02 2.00 1.89 1.81 1.81 1.89 1.91 1.93 1.92 1.94 1.99 2.07 2.27 2.55 2.65 2.66 2.62 2.71 2.77 2.64 2.54 2.51 2.48 2.37 2.39 2.27 1.93 1.83 1.70 1.56 1.45 1.21 1.09
1.98 2.10 2.06 1.99 1.86 1.78 1.67 1.56 1.56 1.64 1.78 1.81 1.83 1.88 1.64 1.47 1.59 1.62 1.74 1.72 1.65 1.72 1.86 2.13 2.33 2.34 2.42 2.43 2.66 2.67 2.72 2.79 2.77 2.70 2.69 2.74 2.38 2.07 1.82 1.74 1.64 1.30 1.14
2.22 2.25 2.22 2.11 2.01 1.93 1.84 1.65 1.63 1.57 1.67 1.71 1.71 1.73 1.67 1.56 1.54 1.65 1.72 1.67 1.52 1.47 1.45 1.44 1.68 1.95 2.15 2.37 2.42 2.49 2.63 2.72 2.73 2.57 2.51 2.61 2.44 2.27 1.95 1.67 1.55 1.35 1.16
2.33 2.32 2.36 2.26 2.17 2.19 2.04 1.69 1.53 1.48 1.63 1.67 1.67 1.61 1.56 1.52 1.56 1.44 1.42 1.45 1.44 1.41 1.26 1.25 1.33 1.54 1.73 1.79 1.99 2.25 2.48 2.49 2.46 2.24 2.05 2.16 2.22 2.22 2.18 1.92 1.54 1.41 1.21
2.45 2.45 2.38 2.34 2.24 2.21 2.13 1.62 1.37 1.34 1.53 1.59 1.65 1.61 1.51 1.38 1.35 1.23 1.23 1.38 1.36 1.35 1.35 1.28 1.19 1.22 1.30 1.45 1.53 1.61 1.93 2.15 2.07 2.02 1.77 1.68 1.67 1.77 1.94 1.76 1.48 1.39 1.34